15min,AgWx,beryljct,423,24MAR2021:00:00:00,36.9,12.8,35.6,35.3,34.9,35.3,34.6,59,60,58,0.405,22.0,22.1,21.8,10.08,9.5,350,9.4,14.3,0.00021,0.00025,41.2,42.9,14,0,0,.,7.81,0.00,0.00
15min,AgWx,beryljct,423,24MAR2021:00:15:00,36.9,12.8,35.8,35.5,35.4,35.6,35.2,59,59,58,0.417,22.4,22.8,21.9,13.9,12.2,358,9.5,17.0,0.00024,0.00028,41.1,42.9,14,0,0,.,7.81,0.00,0.00
15min,AgWx,beryljct,423,24MAR2021:00:30:00,36.9,12.78,36.1,35.6,35.6,35.7,35.5,60,61,59,0.429,23.1,23.4,22.8,20.74,15.5,356,19,21.8,0.00026,0.00030,41.0,42.8,14,0,0,.,7.81,0.00,0.00
15min,AgWx,beryljct,423,24MAR2021:00:45:00,36.9,12.78,35.5,35.2,35.4,35.7,35.2,61,62,61,0.431,23.5,23.7,23.3,12.58,14.4,354,7.8,19.8,0.00024,0.00028,40.9,42.8,14,0,0,.,7.81,0.00,0.00
15min,AgWx,beryljct,423,24MAR2021:01:00:00,36.9,12.76,35.8,35.4,35.3,35.5,35.2,62,62,61,0.429,23.5,23.6,23.4,17.01,14.9,352,13,19.3,0.00024,0.00028,40.8,42.8,14,0,0,.,7.81,0.00,0.00
15min,AgWx,beryljct,423,24MAR2021:01:15:00,36.9,12.77,35.4,35.2,35.4,35.5,35.2,62,62,61,0.431,23.5,23.6,23.3,9.84,14.0,360,15,18.6,0.00024,0.00028,40.7,42.7,14,0,0,.,7.81,0.00,0.00
15min,AgWx,beryljct,423,24MAR2021:01:30:00,36.9,12.76,35.2,35.0,35.1,35.3,35.0,63,63,62,0.435,23.6,23.8,23.5,10.02,11.8,1.6,19,16.0,0.00021,0.00025,40.6,42.7,14,0,0,.,7.82,0.00,0.00
15min,AgWx,beryljct,423,24MAR2021:01:45:00,36.8,12.74,35.2,34.9,34.9,35.0,34.9,63,64,63,0.436,23.7,23.8,23.7,15.72,12.3,3.0,18,17.0,0.00021,0.00025,40.5,42.6,14,0,0,.,7.81,0.00,0.00
15min,AgWx,beryljct,423,24MAR2021:02:00:00,36.7,12.73,35.1,34.7,34.9,35.0,34.7,63,64,63,0.435,23.7,23.8,23.6,17.8,13.6,357,14,17.8,0.00022,0.00025,40.5,42.6,14,0,0,.,7.82,0.00,0.00
15min,AgWx,beryljct,423,24MAR2021:02:15:00,36.6,12.72,35.1,34.8,34.8,34.9,34.6,64,64,63,0.432,23.7,23.8,23.6,10.52,12.9,1.8,12,17.1,0.00021,0.00025,40.4,42.6,14,0,0,.,7.82,0.00,0.00
15min,AgWx,beryljct,423,24MAR2021:02:30:00,36.6,12.71,35.2,35.0,35.0,35.2,34.8,63,63,63,0.435,23.7,23.8,23.6,14.12,14.6,359,14,19.3,0.00023,0.00026,40.3,42.5,14,0,0,.,7.82,0.00,0.00
15min,AgWx,beryljct,423,24MAR2021:02:45:00,36.6,12.71,35.2,35.0,35.0,35.1,34.9,63,64,63,0.435,23.7,23.9,23.6,14.62,14.7,2.3,9.7,20.0,0.00023,0.00026,40.3,42.5,14,0,0,.,7.82,0.00,0.00
15min,AgWx,beryljct,423,24MAR2021:03:00:00,36.5,12.71,35.0,34.8,34.9,35.0,34.8,63,63,63,0.433,23.7,23.8,23.6,13.26,14.6,0.8,8.3,18.8,0.00023,0.00026,40.2,42.4,14,0,0,.,7.82,0.00,0.00
15min,AgWx,beryljct,423,24MAR2021:03:15:00,36.5,12.69,34.8,34.6,34.7,34.9,34.6,64,64,63,0.433,23.7,23.7,23.6,13.02,14.1,0.4,10,17.9,0.00022,0.00025,40.1,42.4,14,0,0,.,7.82,0.00,0.00
15min,AgWx,beryljct,423,24MAR2021:03:30:00,36.4,12.68,34.6,34.3,34.4,34.7,34.3,64,65,64,0.433,23.7,23.8,23.6,15.04,13.4,360,9.5,17.6,0.00021,0.00024,40.1,42.4,14,0,0,.,7.82,0.00,0.00
15min,AgWx,beryljct,423,24MAR2021:03:45:00,36.2,12.67,34.5,34.2,34.2,34.4,34.1,65,65,64,0.430,23.6,23.8,23.4,12.32,12.2,1.1,9.2,16.3,0.00020,0.00023,40.0,42.3,14,0,0,.,7.82,0.00,0.00
15min,AgWx,beryljct,423,24MAR2021:04:00:00,36.0,12.66,34.2,33.9,34.1,34.2,33.9,65,65,64,0.429,23.4,23.5,23.3,9.8,11.0,6.0,8.8,14.8,0.00019,0.00022,39.9,42.3,14,0,0,.,7.82,0.00,0.00
15min,AgWx,beryljct,423,24MAR2021:04:15:00,35.9,12.66,33.9,33.5,33.7,33.9,33.5,65,66,65,0.428,23.4,23.5,23.3,9.03,9.1,8.4,7.6,12.1,0.00016,0.00019,39.9,42.2,14,0,0,.,7.82,0.00,0.00
15min,AgWx,beryljct,423,24MAR2021:04:30:00,35.6,12.64,33.6,33.3,33.4,33.6,33.3,66,66,66,0.426,23.2,23.4,23.2,9.1,8.7,6.3,13,11.2,0.00015,0.00018,39.8,42.2,14,0,0,.,7.82,0.00,0.00
15min,AgWx,beryljct,423,24MAR2021:04:45:00,35.4,12.65,33.3,33.0,33.1,33.3,33.0,67,67,66,0.427,23.3,23.4,23.1,6.445,7.7,1.8,8.2,10.9,0.00013,0.00017,39.7,42.1,14,0,0,.,7.82,0.00,0.00
15min,AgWx,beryljct,423,24MAR2021:05:00:00,35.2,12.63,33.3,32.9,33.0,33.2,32.9,67,67,66,0.426,23.2,23.4,23.0,7.453,7.5,358,7.2,10.3,0.00013,0.00016,39.7,42.1,14,0,0,.,7.82,0.00,0.00
15min,AgWx,beryljct,423,24MAR2021:05:15:00,35.0,12.63,33.3,33.0,33.0,33.2,32.9,66,67,66,0.421,23.0,23.2,22.8,8.51,7.9,4.6,6.7,10.6,0.00014,0.00017,39.6,42.1,14,0,0,.,7.82,0.00,0.00
15min,AgWx,beryljct,423,24MAR2021:05:30:00,34.9,12.63,33.3,32.9,32.9,33.0,32.8,66,67,66,0.417,22.8,23.0,22.6,9.1,7.8,2.2,15,10.3,0.00014,0.00017,39.6,42.0,14,0,0,.,7.82,0.00,0.00
15min,AgWx,beryljct,423,24MAR2021:05:45:00,34.8,12.62,33.1,32.8,32.9,33.1,32.8,65,66,64,0.408,22.4,22.7,22.2,9.14,10.4,3.6,9.9,14.1,0.00017,0.00020,39.5,42.0,14,0,0,.,7.82,0.00,0.00
15min,AgWx,beryljct,423,24MAR2021:06:00:00,34.6,12.61,32.5,32.1,32.6,32.9,32.1,66,67,65,0.410,22.3,22.4,22.2,8.75,9.3,12,9.3,11.9,0.00041,0.00071,39.4,42.0,14,0,0,.,7.82,0.00,0.00
15min,AgWx,beryljct,423,24MAR2021:06:15:00,34.1,12.62,31.9,31.5,31.7,32.2,31.5,67,68,67,0.406,22.2,22.4,22.0,9.6,8.8,25,6.7,12.1,0.00036,0.00063,39.4,41.9,14,0,0,.,7.82,0.00,0.00
15min,AgWx,beryljct,423,24MAR2021:06:30:00,33.6,12.61,31.8,31.3,31.6,31.9,31.2,68,69,67,0.408,22.1,22.3,21.9,6.314,8.3,19,10,13.5,0.00035,0.00061,39.3,41.9,14,1,0,.,7.82,0.00,0.00
15min,AgWx,beryljct,423,24MAR2021:06:45:00,33.2,12.62,31.2,30.9,31.2,31.5,30.9,69,70,68,0.408,22.2,22.4,22.0,6.883,5.8,3.2,7.7,7.3,0.00029,0.00048,39.2,41.8,14,11,0,.,7.82,0.00,0.00
15min,AgWx,beryljct,423,24MAR2021:07:00:00,32.8,12.67,31.1,30.8,30.8,30.9,30.7,71,71,70,0.414,22.4,22.7,22.2,5.875,7.1,4.0,12,9.3,0.00042,0.00063,39.1,41.8,14,49,0,.,7.82,0.00,0.00
15min,AgWx,beryljct,423,24MAR2021:07:15:00,32.8,12.66,31.5,31.0,30.9,31.1,30.7,72,72,71,0.419,22.8,22.9,22.6,8.66,6.6,6.6,9.4,8.7,0.00053,0.00073,39.1,41.7,14,105,0,.,7.82,0.00,0.00
15min,AgWx,beryljct,423,24MAR2021:07:30:00,33.1,12.76,32.2,31.9,31.5,31.9,31.1,69,71,68,0.412,22.7,23.0,22.3,9.82,9.2,13,8.1,12.1,0.00069,0.00096,39.0,41.7,14,143,0,.,7.82,0.00,0.00
15min,AgWx,beryljct,423,24MAR2021:07:45:00,33.6,12.92,32.5,32.4,32.1,32.4,31.8,67,68,65,0.405,22.4,22.7,21.9,11.95,9.6,8.0,12,12.4,0.00085,0.00116,38.9,41.7,14,193,0,.,7.82,0.00,0.00
15min,AgWx,beryljct,423,24MAR2021:08:00:00,34.4,13.23,34.1,33.5,32.9,33.6,32.4,64,65,62,0.404,21.9,22.2,21.5,11.18,11.5,8.4,13,14.8,0.00105,0.00145,38.8,41.6,14,244,0,.,7.82,0.00,0.00
15min,AgWx,beryljct,423,24MAR2021:08:15:00,35.4,13.61,35.1,34.0,33.7,34.1,33.2,63,64,62,0.424,22.5,23.1,21.8,10.39,11.1,21,9.9,16.1,0.00121,0.00162,38.7,41.6,14,296,0,.,7.83,0.00,0.00
15min,AgWx,beryljct,423,24MAR2021:08:30:00,36.5,14.68,34.5,34.5,34.1,34.7,33.6,63,65,61,0.424,22.7,23.4,21.9,5.02,8.5,24,13,12.5,0.00136,0.00173,38.6,41.5,14,350,0,.,7.82,0.00,0.00
15min,AgWx,beryljct,423,24MAR2021:08:45:00,37.8,14.7,35.7,35.1,34.8,35.4,34.1,62,63,61,0.434,23.1,23.9,22.3,7.015,6.7,40,17,10.4,0.00155,0.00190,38.5,41.5,14,401,0,.,7.82,0.00,0.00
15min,AgWx,beryljct,423,24MAR2021:09:00:00,39.2,14.62,35.1,35.5,35.3,35.9,34.7,61,63,59,0.423,23.3,24.3,22.3,7.673,7.6,55,15,11.4,0.00174,0.00213,38.5,41.4,14,454,0,.,7.82,0.00,0.00
15min,AgWx,beryljct,423,24MAR2021:09:15:00,40.3,14.64,35.7,36.2,35.5,36.2,35.0,61,62,59,0.438,23.2,24.4,22.5,7.344,7.7,55,14,11.9,0.00191,0.00233,38.6,41.4,14,507,0,.,7.82,0.00,0.00
15min,AgWx,beryljct,423,24MAR2021:09:30:00,41.4,14.59,37.0,37.0,37.1,38.2,35.9,57,60,53,0.416,23.1,24.8,21.6,6.555,7.7,42,17,11.9,0.00190,0.00236,38.6,41.4,14,453,0,.,7.82,0.00,0.00
15min,AgWx,beryljct,423,24MAR2021:09:45:00,42.4,14.58,42.0,40.2,38.3,40.3,36.9,52,56,44,0.377,22.2,23.7,19.4,10.87,8.2,55,28,18.3,0.00243,0.00298,38.7,41.3,14,596,0,.,7.82,0.00,0.00
15min,AgWx,beryljct,423,24MAR2021:10:00:00,43.6,14.58,40.8,41.0,40.7,41.7,39.4,42,45,40,0.350,19.5,21.3,18.2,22.73,15.5,21,12,22.7,0.00269,0.00362,38.9,41.3,14,586,0,.,7.81,0.00,0.00
15min,AgWx,beryljct,423,24MAR2021:10:15:00,44.6,14.51,41.9,41.8,41.5,43.0,40.6,42,44,39,0.384,19.8,21.8,17.6,16.27,16.2,32,15,22.4,0.00304,0.00405,39.1,41.2,14,701,0,.,7.82,0.00,0.00
15min,AgWx,beryljct,423,24MAR2021:10:30:00,45.6,14.51,41.8,41.0,41.9,43.5,40.8,42,44,41,0.364,20.6,22.7,19.4,11.22,14.4,36,14,21.3,0.00316,0.00411,39.3,41.2,14,732,0,.,7.81,0.00,0.00
15min,AgWx,beryljct,423,24MAR2021:10:45:00,46.4,14.09,45.8,43.5,42.5,44.3,41.2,41,43,39,0.393,20.5,22.5,19.2,13,13.8,46,16,20.4,0.00331,0.00428,39.6,41.1,14,759,0,.,7.81,0.00,0.00
15min,AgWx,beryljct,423,24MAR2021:11:00:00,47.1,14.08,44.6,43.2,43.1,44.4,41.9,39,41,37,0.356,20.1,21.9,18.8,13.81,13.7,48,13,19.8,0.00349,0.00451,39.9,41.1,14,788,0,.,7.81,0.00,0.00
15min,AgWx,beryljct,423,24MAR2021:11:15:00,47.7,14.07,45.1,44.3,43.2,44.3,42.2,38,40,35,0.380,19.2,21.5,17.0,12.91,12.9,32,21,21.2,0.00359,0.00461,40.2,41.1,14,811,0,.,7.80,0.00,0.00
15min,AgWx,beryljct,423,24MAR2021:11:30:00,48.3,14.05,45.1,45.2,43.9,45.2,42.7,37,38,35,0.388,19.2,21.1,17.2,18.63,13.4,32,16,18.6,0.00372,0.00478,40.5,41.1,14,830,0,.,7.81,0.00,0.00
15min,AgWx,beryljct,423,24MAR2021:11:45:00,48.8,14.05,45.8,44.4,44.4,45.4,43.4,36,37,34,0.355,18.9,20.6,17.7,14.07,15.1,43,17,24.9,0.00382,0.00499,40.9,41.1,14,847,0,.,7.81,0.00,0.00
15min,AgWx,beryljct,423,24MAR2021:12:00:00,49.5,14.05,45.1,45.2,44.6,46.1,42.8,35,37,33,0.349,18.6,21.0,17.1,17.16,11.7,35,21,21.4,0.00394,0.00499,41.4,41.1,14,863,0,.,7.80,0.00,0.00
15min,AgWx,beryljct,423,24MAR2021:12:15:00,50.1,14.02,46.3,46.3,45.1,46.4,44.0,34,37,33,0.352,18.5,20.8,17.0,18.48,13.5,55,12,20.8,0.00400,0.00516,41.8,41.1,14,873,0,.,7.80,0.00,0.00
15min,AgWx,beryljct,423,24MAR2021:12:30:00,50.5,14,50.3,47.4,45.8,47.4,44.5,33,35,31,0.358,18.2,20.4,16.4,14.32,13.1,48,13,21.4,0.00410,0.00528,42.3,41.1,14,876,0,.,7.80,0.00,0.00
15min,AgWx,beryljct,423,24MAR2021:12:45:00,51.1,14,47.7,47.0,46.6,48.2,44.8,31,35,30,0.339,18.0,20.9,16.4,16.44,11.5,54,15,18.7,0.00423,0.00538,42.7,41.1,14,881,0,.,7.80,0.00,0.00
15min,AgWx,beryljct,423,24MAR2021:13:00:00,51.5,14,46.2,46.8,46.7,48.0,45.4,31,32,28,0.348,17.3,19.1,15.0,13.33,11.6,41,21,19.7,0.00421,0.00538,43.2,41.1,14,872,0,.,7.80,0.00,0.00
15min,AgWx,beryljct,423,24MAR2021:13:15:00,52.2,13.95,47.6,46.3,46.9,48.6,46.0,29,33,27,0.304,16.5,20.1,14.3,7.936,11.6,38,17,18.1,0.00433,0.00552,43.7,41.2,14,888,0,.,7.79,0.00,0.00
15min,AgWx,beryljct,423,24MAR2021:13:30:00,52.7,13.96,45.9,47.7,47.0,48.7,46.1,28,31,25,0.300,15.2,18.0,13.1,9.69,12.5,44,21,20.3,0.00397,0.00522,44.2,41.3,14,783,0,.,7.79,0.00,0.00
15min,AgWx,beryljct,423,24MAR2021:13:45:00,53.1,13.96,48.3,46.9,47.4,48.8,46.4,25,27,23,0.260,13.7,15.4,11.3,13.77,11.8,38,16,16.6,0.00432,0.00559,44.7,41.3,14,859,0,.,7.79,0.00,0.00
15min,AgWx,beryljct,423,24MAR2021:14:00:00,53.7,13.94,50.0,47.8,47.3,48.5,46.2,27,30,24,0.322,15.0,18.2,12.3,10.52,9.2,28,26,15.1,0.00421,0.00530,45.2,41.4,14,845,0,.,7.79,0.00,0.00
15min,AgWx,beryljct,423,24MAR2021:14:15:00,54.7,13.91,47.6,48.3,47.6,48.7,46.6,27,29,25,0.287,15.3,17.4,13.4,11.79,7.4,46,29,15.3,0.00417,0.00514,45.7,41.5,14,831,0,.,7.79,0.00,0.00
15min,AgWx,beryljct,423,24MAR2021:14:30:00,55.5,13.86,47.0,48.5,47.8,49.2,46.8,23,26,21,0.270,12.2,14.7,9.2,9.08,7.5,56,17,13.5,0.00395,0.00495,46.2,41.6,14,765,0,.,7.79,0.00,0.00
15min,AgWx,beryljct,423,24MAR2021:14:45:00,56.0,13.97,48.2,48.2,48.0,48.8,46.7,25,27,22,0.289,13.6,16.0,10.4,6.664,4.9,44,54,11.2,0.00371,0.00448,46.6,41.7,14,732,0,.,7.79,0.00,0.00
15min,AgWx,beryljct,423,24MAR2021:15:00:00,56.6,13.83,47.9,49.0,48.4,49.4,47.4,24,26,23,0.282,13.3,15.3,11.9,7.87,7.3,55,23,13.3,0.00376,0.00474,47.1,41.7,14,717,0,.,7.79,0.00,0.00
15min,AgWx,beryljct,423,24MAR2021:15:15:00,57.2,13.79,48.1,48.3,48.4,49.8,47.3,23,25,22,0.252,12.6,14.8,11.0,6.555,5.9,56,45,11.3,0.00372,0.00460,47.5,41.9,14,718,0,.,7.79,0.00,0.00
15min,AgWx,beryljct,423,24MAR2021:15:30:00,57.6,13.89,47.5,48.6,48.3,49.2,47.5,22,24,21,0.263,11.5,14.0,10.3,5.327,4.0,108,82,7.3,0.00314,0.00381,48.0,42.0,14,615,0,.,7.79,0.00,0.00
15min,AgWx,beryljct,423,24MAR2021:15:45:00,57.5,13.84,48.8,48.5,48.4,49.6,47.2,22,24,22,0.261,11.7,14.2,10.0,0,5.2,15,45,10.4,0.00285,0.00363,48.4,42.1,14,539,0,.,7.79,0.00,0.00
15min,AgWx,beryljct,423,24MAR2021:16:00:00,57.4,13.83,47.4,47.4,47.9,49.9,47.3,22,23,22,0.247,11.1,13.5,10.3,3.42,2.1,13,50,4.2,0.00207,0.00246,48.8,42.2,14,440,0,.,7.79,0.00,0.00
15min,AgWx,beryljct,423,24MAR2021:16:15:00,56.9,13.86,47.7,48.1,48.4,49.2,47.4,23,25,21,0.256,12.1,14.5,10.4,1.973,3.5,168,47,7.0,0.00167,0.00220,49.1,42.4,14,334,0,.,7.79,0.00,0.00
15min,AgWx,beryljct,423,24MAR2021:16:30:00,55.7,13.9,48.2,48.2,48.0,48.6,47.6,23,25,22,0.278,12.2,14.1,11.0,3.858,3.3,107,42,6.4,0.00139,0.00187,49.3,42.6,14,286,0,.,7.79,0.00,0.00
15min,AgWx,beryljct,423,24MAR2021:16:45:00,54.7,13.93,47.7,48.0,47.9,48.3,47.6,23,25,23,0.275,12.1,13.7,11.3,6.62,1.5,61,37,6.6,0.00095,0.00120,49.5,42.7,14,246,0,.,7.79,0.00,0.00
15min,AgWx,beryljct,423,24MAR2021:17:00:00,53.8,13.93,47.6,47.7,48.0,48.3,47.7,24,26,23,0.259,12.7,14.7,11.5,1.184,3.8,94,22,7.8,0.00126,0.00178,49.7,42.9,14,248,0,.,7.79,0.00,0.00
15min,AgWx,beryljct,423,24MAR2021:17:15:00,52.9,13.42,47.8,47.7,47.6,47.9,47.3,24,26,23,0.284,12.3,14.9,11.2,4.319,1.9,85,49,5.2,0.00052,0.00078,49.7,43.0,14,160,0,.,7.79,0.00,0.00
15min,AgWx,beryljct,423,24MAR2021:17:30:00,51.7,13.21,47.5,47.3,47.5,47.8,47.2,25,27,24,0.279,13.5,15.4,12.2,1.491,3.0,94,22,5.2,0.00043,0.00081,49.8,43.2,14,106,0,.,7.80,0.00,0.00
15min,AgWx,beryljct,423,24MAR2021:17:45:00,50.5,13.18,47.4,47.1,47.2,47.4,47.1,27,29,24,0.304,14.5,16.7,11.9,3.639,2.8,57,10,3.8,0.00023,0.00057,49.8,43.3,14,77,0,.,7.80,0.00,0.00
15min,AgWx,beryljct,423,24MAR2021:18:00:00,49.8,13.15,47.7,47.4,47.3,47.4,47.1,26,28,25,0.292,14.5,16.2,13.2,4.582,4.4,73,11,6.2,0.00044,0.00059,49.7,43.5,14,107,0,.,7.79,0.00,0.00
15min,AgWx,beryljct,423,24MAR2021:18:15:00,49.2,13.09,46.8,46.8,47.1,47.4,46.7,27,30,26,0.290,15.0,16.9,13.7,4.801,4.8,60,7.3,6.5,0.00039,0.00053,49.6,43.6,14,68,0,.,7.80,0.00,0.00
15min,AgWx,beryljct,423,24MAR2021:18:30:00,48.3,13.02,45.4,45.4,46.1,46.8,45.4,29,32,27,0.313,15.8,17.3,14.4,2.192,3.0,78,7.7,5.7,0.00017,0.00026,49.5,43.8,14,32,0,.,7.80,0.00,0.00
15min,AgWx,beryljct,423,24MAR2021:18:45:00,47.2,13,45.4,44.7,45.4,45.9,44.5,29,32,28,0.306,15.2,16.6,14.3,1.622,1.4,97,9.2,2.4,-0.00008,-0.00008,49.4,43.9,14,12,0,.,7.80,0.00,0.00
15min,AgWx,beryljct,423,24MAR2021:19:00:00,46.0,12.97,45.1,44.7,44.8,45.2,44.4,30,32,29,0.307,15.6,16.3,14.9,2.433,2.0,94,6.5,2.7,-0.00002,0.00000,49.2,44.0,14,2,0,.,7.80,0.00,0.00
15min,AgWx,beryljct,423,24MAR2021:19:15:00,45.1,12.95,42.5,43.2,44.2,44.8,43.2,32,36,30,0.337,16.0,17.8,15.2,1.885,2.0,100,20,2.9,-0.00002,0.00001,49.0,44.2,14,0,0,.,7.80,0.00,0.00
15min,AgWx,beryljct,423,24MAR2021:19:30:00,44.0,12.94,43.2,42.9,42.9,43.0,42.7,35,37,34,0.321,17.1,18.3,16.5,1.907,2.1,197,13,2.8,-0.00002,0.00001,48.8,44.2,14,0,0,.,7.80,0.00,0.00
15min,AgWx,beryljct,423,24MAR2021:19:45:00,43.0,12.94,34.9,41.7,42.5,43.2,40.9,34,38,33,0.324,16.4,17.6,15.9,1.359,2.2,214,4.1,3.0,-0.00001,0.00002,48.6,44.4,14,0,0,.,7.80,0.00,0.00
15min,AgWx,beryljct,423,24MAR2021:20:00:00,41.7,12.92,42.1,41.3,39.9,41.9,38.0,39,44,34,0.307,17.0,18.3,15.6,2.148,2.0,241,13,2.7,-0.00004,-0.00003,48.3,44.4,14,0,0,.,7.81,0.00,0.00
15min,AgWx,beryljct,423,24MAR2021:20:15:00,40.1,12.91,39.3,35.7,37.2,41.5,33.7,46,55,35,0.350,18.0,19.4,15.7,0.219,1.2,219,13,3.1,-0.00013,-0.00016,48.0,44.5,14,0,0,.,7.80,0.00,0.00
15min,AgWx,beryljct,423,24MAR2021:20:30:00,38.5,12.9,34.6,33.6,36.0,38.5,32.5,47,56,41,0.358,17.7,19.2,16.5,2.17,1.1,281,22,2.5,-0.00014,-0.00018,47.7,44.6,14,0,0,.,7.81,0.00,0.00
15min,AgWx,beryljct,423,24MAR2021:20:45:00,37.0,12.9,35.7,36.2,34.4,37.2,31.4,52,61,44,0.332,18.3,19.7,17.1,0,0.8,151,54,2.3,-0.00017,-0.00023,47.5,44.7,14,0,0,.,7.81,0.00,0.00
15min,AgWx,beryljct,423,24MAR2021:21:00:00,36.1,12.87,36.1,36.7,36.8,38.1,35.5,44,48,40,0.320,16.7,17.8,15.8,0.263,0.0,158,10,0.4,-0.00030,-0.00047,47.2,44.7,14,0,0,.,7.81,0.00,0.00
15min,AgWx,beryljct,423,24MAR2021:21:15:00,35.7,12.88,31.1,35.3,36.9,38.3,35.3,43,47,40,0.326,16.3,17.0,15.8,0.68,1.2,271,24,2.8,-0.00013,-0.00017,46.9,44.8,14,0,0,.,7.81,0.00,0.00
15min,AgWx,beryljct,423,24MAR2021:21:30:00,35.0,12.86,31.3,31.8,32.5,34.7,31.0,56,60,48,0.357,18.4,19.1,16.9,0,0.5,118,15,2.2,-0.00020,-0.00029,46.5,44.8,14,0,0,.,7.81,0.00,0.00
15min,AgWx,beryljct,423,24MAR2021:21:45:00,34.2,12.86,29.9,30.9,32.5,34.2,30.2,57,64,52,0.359,18.8,19.9,18.1,3.793,1.4,162,66,4.5,-0.00012,-0.00015,46.3,44.8,14,0,0,.,7.81,0.00,0.00
15min,AgWx,beryljct,423,24MAR2021:22:00:00,33.6,12.86,33.3,33.2,32.7,34.3,30.0,56,66,50,0.349,18.8,20.3,17.4,1.074,1.5,265,42,3.9,-0.00010,-0.00013,46.0,44.9,14,0,0,.,7.81,0.00,0.00
15min,AgWx,beryljct,423,24MAR2021:22:15:00,33.1,12.85,33.1,32.7,31.9,33.4,30.0,57,62,52,0.334,18.2,20.0,17.3,0,1.2,315,47,5.4,-0.00013,-0.00016,45.7,44.9,14,0,0,.,7.81,0.00,0.00
15min,AgWx,beryljct,423,24MAR2021:22:30:00,32.9,12.85,30.6,30.4,32.6,33.7,30.4,54,62,51,0.354,17.8,19.0,17.1,0.197,0.7,347,12,2.6,-0.00018,-0.00026,45.4,44.9,14,0,0,.,7.82,0.00,0.00
15min,AgWx,beryljct,423,24MAR2021:22:45:00,32.6,12.84,30.0,29.1,30.1,30.8,29.1,62,69,59,0.373,18.8,20.2,18.0,3.595,1.5,6.5,54,3.8,-0.00011,-0.00013,45.1,44.9,14,0,0,.,7.82,0.00,0.00
15min,AgWx,beryljct,423,24MAR2021:23:00:00,32.5,12.83,30.9,29.8,30.4,31.8,29.2,64,69,57,0.376,19.6,20.7,18.1,3.464,3.2,130,15,5.0,-0.00002,-0.00001,44.9,44.9,14,0,0,.,7.82,0.00,0.00
15min,AgWx,beryljct,423,24MAR2021:23:15:00,32.3,12.81,30.1,29.6,30.1,30.8,29.5,65,68,61,0.360,19.8,20.7,19.0,1.271,1.6,164,4.1,4.1,-0.00011,-0.00013,44.6,44.9,14,0,0,.,7.82,0.00,0.00
15min,AgWx,beryljct,423,24MAR2021:23:30:00,31.9,12.82,32.8,32.6,30.7,32.6,29.5,61,67,53,0.330,18.8,20.1,17.2,2.368,2.6,179,7.1,4.1,-0.00004,-0.00004,44.4,44.8,14,0,0,.,7.82,0.00,0.00
15min,AgWx,bigpiney,439,24MAR2021:00:00:00,14.9,12.68,12.2,11.7,12.2,13.5,11.7,83,84,81,0.217,8.0,8.8,7.4,4.626,5.4,214,15,6.2,0.00003,0.00004,31.4,31.6,11,0,0,0.0,0.20,0.00,0.00
15min,AgWx,bigpiney,439,24MAR2021:00:15:00,14.4,12.65,12.7,12.3,11.8,12.8,11.2,85,86,84,0.223,8.2,9.4,7.4,4.626,4.8,197,7.1,6.5,0.00002,0.00003,31.4,31.5,11,0,0,0.0,0.20,0.00,0.00
15min,AgWx,bigpiney,439,24MAR2021:00:30:00,14.1,12.66,12.6,11.8,12.0,12.6,11.5,84,86,83,0.214,8.1,9.0,7.4,4.275,4.8,216,12,5.5,0.00002,0.00003,31.4,31.6,11,0,0,0.0,0.20,0.00,0.00
15min,AgWx,bigpiney,439,24MAR2021:00:45:00,13.7,12.64,12.7,12.2,12.6,13.4,11.7,81,83,78,0.207,7.9,8.5,6.8,4.626,4.9,237,4.0,5.9,0.00003,0.00004,31.4,31.5,11,0,0,0.0,0.20,0.00,0.00
15min,AgWx,bigpiney,439,24MAR2021:01:00:00,13.5,12.64,14.1,13.2,12.5,13.4,11.9,82,83,79,0.228,7.9,9.2,6.8,5.897,5.4,240,3.3,6.0,0.00003,0.00004,31.4,31.5,11,0,0,0.0,0.20,0.00,0.00
15min,AgWx,bigpiney,439,24MAR2021:01:15:00,13.5,12.63,13.3,12.4,12.7,13.4,12.2,82,83,81,0.216,8.2,9.2,7.4,5.568,5.3,239,4.9,6.2,0.00003,0.00004,31.4,31.5,11,0,0,0.0,0.20,0.00,0.00
15min,AgWx,bigpiney,439,24MAR2021:01:30:00,13.3,12.61,12.5,12.6,12.0,13.1,11.4,81,82,79,0.213,7.2,8.6,6.4,5.239,5.3,234,3.9,6.2,0.00003,0.00004,31.4,31.6,11,0,0,0.0,0.20,0.00,0.00
15min,AgWx,bigpiney,439,24MAR2021:01:45:00,13.1,12.61,13.2,12.9,11.4,12.9,9.6,81,84,79,0.223,6.6,8.4,4.3,4.494,4.1,233,12,5.7,0.00003,0.00003,31.4,31.6,11,0,0,0.0,0.20,0.00,0.00
15min,AgWx,bigpiney,439,24MAR2021:02:00:00,12.8,12.6,13.7,13.0,12.9,13.2,12.4,80,82,79,0.218,7.9,8.5,7.2,5.437,5.3,239,5.9,6.5,0.00004,0.00004,31.4,31.6,11,0,0,0.0,0.20,0.00,0.00
15min,AgWx,bigpiney,439,24MAR2021:02:15:00,12.9,12.59,14.0,13.5,13.2,13.5,12.8,81,81,80,0.226,8.4,8.7,7.8,5.305,5.2,242,4.9,6.2,0.00003,0.00004,31.4,31.5,11,0,0,0.0,0.20,0.00,0.00
15min,AgWx,bigpiney,439,24MAR2021:02:30:00,13.1,12.57,14.1,13.4,13.3,13.6,13.0,81,82,80,0.226,8.6,8.9,8.2,4.976,4.8,249,5.3,5.7,0.00003,0.00004,31.4,31.5,11,0,0,0.0,0.20,0.00,0.00
15min,AgWx,bigpiney,439,24MAR2021:02:45:00,13.3,12.55,13.0,12.2,13.0,13.5,12.2,81,82,81,0.216,8.3,8.8,7.6,5.02,4.3,238,5.7,5.4,0.00003,0.00004,31.4,31.5,11,0,0,0.0,0.20,0.00,0.00
15min,AgWx,bigpiney,439,24MAR2021:03:00:00,13.2,12.54,12.2,11.8,12.0,12.5,11.8,82,83,82,0.215,7.7,8.2,7.4,3.968,5.1,241,4.6,6.1,0.00003,0.00004,31.4,31.5,11,0,0,0.0,0.20,0.00,0.00
15min,AgWx,bigpiney,439,24MAR2021:03:15:00,13.0,12.54,11.7,10.5,11.2,11.8,10.4,83,84,82,0.206,7.1,7.7,6.4,1.556,2.4,241,19,4.1,0.00001,0.00002,31.4,31.5,11,0,0,0.0,0.20,0.00,0.00
15min,AgWx,bigpiney,439,24MAR2021:03:30:00,12.7,12.52,14.9,14.1,13.0,14.2,10.6,84,86,83,0.238,9.2,10.0,6.7,1.118,2.0,273,13,3.1,0.00000,0.00001,31.4,31.6,11,0,0,0.0,0.20,0.00,0.00
15min,AgWx,bigpiney,439,24MAR2021:03:45:00,12.8,12.51,14.0,13.0,13.9,14.5,13.0,82,83,81,0.224,9.5,10.1,8.5,0.504,0.9,256,13,2.1,-0.00001,-0.00001,31.4,31.5,11,0,0,0.0,0.20,0.00,0.00
15min,AgWx,bigpiney,439,24MAR2021:04:00:00,13.0,12.5,13.6,12.6,13.3,13.7,12.6,83,84,82,0.223,9.2,9.8,8.2,1.622,1.0,277,58,1.7,-0.00001,-0.00001,31.4,31.5,11,0,0,0.0,0.20,0.00,0.00
15min,AgWx,bigpiney,439,24MAR2021:04:15:00,12.9,12.49,12.5,11.4,12.3,12.6,11.4,84,84,83,0.213,8.2,8.7,7.2,0.899,1.8,65,14,3.3,0.00000,0.00001,31.4,31.6,11,0,0,0.0,0.20,0.00,0.00
15min,AgWx,bigpiney,439,24MAR2021:04:30:00,12.5,12.5,12.4,11.5,11.5,11.9,11.3,85,86,83,0.219,7.9,8.3,7.3,2.302,2.0,21,18,2.7,0.00000,0.00001,31.4,31.5,11,0,0,0.0,0.20,0.00,0.00
15min,AgWx,bigpiney,439,24MAR2021:04:45:00,12.0,12.5,10.5,9.2,10.4,11.5,8.5,85,87,83,0.198,6.8,8.0,4.3,2.455,2.6,330,25,5.0,0.00001,0.00001,31.4,31.6,11,0,0,0.0,0.20,0.00,0.00
15min,AgWx,bigpiney,439,24MAR2021:05:00:00,11.4,12.49,11.0,10.7,9.9,11.1,9.3,84,86,82,0.204,6.2,7.0,5.5,2.061,2.0,318,15,3.3,0.00000,0.00001,31.4,31.5,11,0,0,0.0,0.20,0.00,0.00
15min,AgWx,bigpiney,439,24MAR2021:05:15:00,10.8,12.48,11.2,10.3,10.3,10.6,10.1,83,83,82,0.201,6.0,6.4,5.9,1.951,1.3,286,8.9,2.9,-0.00000,0.00000,31.4,31.5,11,0,0,0.0,0.20,0.00,0.00
15min,AgWx,bigpiney,439,24MAR2021:05:30:00,10.4,12.48,10.4,9.9,10.0,10.4,9.7,83,83,82,0.197,5.7,6.3,5.4,4.099,3.0,278,18,4.3,0.00002,0.00002,31.4,31.5,11,0,0,0.0,0.20,0.00,0.00
15min,AgWx,bigpiney,439,24MAR2021:05:45:00,10.1,12.48,10.9,9.9,9.9,10.4,9.2,82,85,81,0.202,5.6,6.2,4.7,2.192,3.7,295,23,5.9,0.00002,0.00003,31.4,31.6,11,0,0,0.0,0.20,0.00,0.00
15min,AgWx,bigpiney,439,24MAR2021:06:00:00,9.8,12.48,9.6,9.1,9.2,10.0,8.5,86,87,85,0.199,5.8,6.5,4.7,4.231,3.3,252,9.1,4.6,0.00001,0.00002,31.4,31.5,11,0,0,0.0,0.20,0.00,0.00
15min,AgWx,bigpiney,439,24MAR2021:06:15:00,9.4,12.49,10.0,9.0,9.8,11.1,8.9,86,88,84,0.195,6.3,8.0,5.0,2.192,2.9,255,9.8,4.1,0.00001,0.00002,31.4,31.5,11,2,0,0.0,0.20,0.00,0.00
15min,AgWx,bigpiney,439,24MAR2021:06:30:00,8.9,12.6,10.0,7.9,8.7,10.8,7.1,85,88,80,0.186,5.1,7.8,2.6,4.582,3.5,229,12,5.3,0.00002,0.00003,31.4,31.5,11,13,0,0.0,0.20,0.00,0.00
15min,AgWx,bigpiney,439,24MAR2021:06:45:00,8.5,12.91,8.2,7.2,7.4,8.9,6.8,85,87,83,0.178,3.7,5.8,2.8,2.718,3.7,238,6.9,5.8,-0.00004,-0.00002,31.4,31.6,11,50,0,0.0,0.20,0.00,0.00
15min,AgWx,bigpiney,439,24MAR2021:07:00:00,8.6,15.02,10.5,9.2,7.9,9.2,7.2,85,86,84,0.198,4.4,5.8,3.5,2.302,3.0,225,6.4,4.0,0.00002,0.00004,31.4,31.6,11,86,0,0.0,0.20,0.00,0.00
15min,AgWx,bigpiney,439,24MAR2021:07:15:00,9.3,14.98,13.4,11.8,10.6,11.8,9.2,86,86,85,0.223,7.1,8.4,5.9,1.096,2.5,219,11,4.5,0.00007,0.00010,31.4,31.5,11,113,0,0.0,0.20,0.00,0.00
15min,AgWx,bigpiney,439,24MAR2021:07:30:00,10.4,14.98,16.8,15.7,13.7,15.7,11.9,85,86,83,0.256,10.0,11.4,8.5,2.148,2.1,221,14,5.2,0.00020,0.00023,31.4,31.5,11,159,0,0.0,0.20,0.00,0.00
15min,AgWx,bigpiney,439,24MAR2021:07:45:00,12.2,14.97,18.2,17.9,16.6,18.0,15.7,82,83,79,0.268,12.0,12.9,11.3,1.513,1.5,268,43,3.5,0.00035,0.00039,31.4,31.6,11,202,0,0.0,0.20,0.00,0.00
15min,AgWx,bigpiney,439,24MAR2021:08:00:00,14.8,14.97,19.9,19.2,18.6,19.3,17.8,76,79,74,0.269,12.4,13.4,11.7,0.417,1.9,342,21,4.0,0.00052,0.00059,31.4,31.5,11,248,0,0.0,0.20,0.00,0.00
15min,AgWx,bigpiney,439,24MAR2021:08:15:00,17.7,15.02,20.9,20.6,20.0,20.7,19.3,74,76,72,0.277,13.1,13.9,12.1,2.587,1.2,31,35,3.4,0.00070,0.00077,31.4,31.5,11,292,0,0.0,0.20,0.00,0.00
15min,AgWx,bigpiney,439,24MAR2021:08:30:00,20.6,14.97,20.8,20.6,20.6,21.0,20.3,72,75,71,0.285,13.2,14.0,12.4,2.653,1.4,85,31,3.6,0.00086,0.00095,31.4,31.5,11,336,0,0.0,0.20,0.00,0.00
15min,AgWx,bigpiney,439,24MAR2021:08:45:00,23.1,14.7,22.3,21.5,21.3,22.2,20.4,74,76,72,0.287,14.3,15.7,13.2,0,1.6,103,28,4.2,0.00101,0.00111,31.4,31.5,11,379,0,0.0,0.20,0.00,0.00